Home   Weather   Kiritimati   Past weeks
Flag for Kiribati

Past Weather in Kiritimati, Christmas Island, Kiribati — Yesterday and Last 2 Weeks

Now
82 °F

Passing clouds.


Feels Like: 89 °F
Forecast: 86 / 81 °F
Wind: 9 mph from East

Location: Christmas / Cassidy

Current Time: Jul 22, 2019 at 10:23:27 pm

Latest Report: Jul 22, 2019 at 9:00 pm


Visibility: N/A

Pressure: 29.80 "Hg

Humidity: 79%

Dew Point: 75 °F

Location of KiritimatiLocation

Past Weather in Kiritimati — Graph

°F

Kiritimati Temperature Yesterday

Maximum temperature yesterday: 86 °F (at 10:00 am)
Minimum temperature yesterday: 73 °F (at 5:00 am)
Average temperature yesterday: 81 °F

High & Low Weather Summary for the Past Weeks

 TemperatureHumidityPressure
High88 °F (Jul 8, 1:00 pm)100% (Jul 10, 3:00 am)29.89 "Hg (Jul 10, 3:00 am)
Low73 °F (Jul 11, 6:00 am)62% (Jul 10, 11:00 am)29.53 "Hg (Jul 17, 2:00 am)
Average83 °F78%29.79 "Hg
* Reported Jul 7 9:00 pm — Jul 22 9:00 pm, Kiritimati. Weather by CustomWeather, © 2019

Note: Actual official high and low records may vary slightly from our data, if they occured in-between our weather recording intervals... More about our weather records

Advertising

Kiritimati Weather History for the Previous 24 Hours

Scroll right to see more
 ConditionsComfort  
Time TempWeatherWind HumidityBarometerVisibility
9:00 pm
Mon, Jul 22
82 °FPassing clouds.9 mph79%29.80 "HgN/A
8:00 pm82 °FPassing clouds.9 mph79%29.77 "HgN/A
7:00 pm82 °FPassing clouds.8 mph74%29.77 "HgN/A
6:00 pm84 °FPassing clouds.14 mph70%29.74 "HgN/A
5:00 pm86 °FPassing clouds.9 mph66%29.74 "HgN/A
4:00 pm86 °FScattered clouds.15 mph66%29.74 "HgN/A
3:00 pm88 °FScattered clouds.12 mph62%29.74 "HgN/A
8:00 am84 °FScattered clouds.9 mph66%29.83 "HgN/A
7:00 am81 °FPassing clouds.5 mph74%29.80 "HgN/A
6:00 am79 °FPassing clouds.6 mph79%29.80 "HgN/A
5:00 am79 °FPassing clouds.7 mph79%29.77 "HgN/A
4:00 am79 °FPassing clouds.5 mph79%29.77 "HgN/A
3:00 am79 °FPassing clouds.5 mph79%29.80 "HgN/A
2:00 am79 °FPassing clouds.5 mph79%29.86 "HgN/A
1:00 am81 °FPassing clouds.3 mph74%29.86 "HgN/A
12:00 am81 °FPassing clouds.3 mph74%29.86 "HgN/A
11:00 pm
Sun, Jul 21
81 °FPassing clouds.5 mph74%29.86 "HgN/A
10:00 pm81 °FPassing clouds.3 mph74%29.86 "HgN/A
Weather by CustomWeather, © 2019

See weather overview